TimeCDT,TemperatureF,Dew PointF,Humidity,Sea Level PressureIn,VisibilityMPH,Wind Direction,Wind SpeedMPH,Gust SpeedMPH,PrecipitationIn,Events,Conditions,WindDirDegrees,DateUTC
12:15 AM,59.0,41.0,51,30.19,10.0,SSE,5.8,-,N/A,,Clear,160,2013-03-15 05:15:00
12:35 AM,59.0,41.0,51,30.20,10.0,SSE,4.6,-,N/A,,Clear,150,2013-03-15 05:35:00
12:55 AM,57.2,41.0,55,30.19,10.0,SSE,4.6,-,N/A,,Clear,160,2013-03-15 05:55:00
1:15 AM,57.2,41.0,55,30.19,10.0,South,4.6,-,N/A,,Clear,170,2013-03-15 06:15:00
1:35 AM,57.2,41.0,55,30.19,10.0,SSE,4.6,-,N/A,,Clear,160,2013-03-15 06:35:00
1:55 AM,55.4,41.0,58,30.19,10.0,South,5.8,-,N/A,,Clear,180,2013-03-15 06:55:00
2:15 AM,55.4,41.0,58,30.19,10.0,SSE,5.8,-,N/A,,Clear,160,2013-03-15 07:15:00
2:55 AM,55.4,42.8,63,30.18,10.0,South,6.9,-,N/A,,Clear,170,2013-03-15 07:55:00
3:15 AM,55.4,42.8,63,30.18,10.0,SSE,5.8,-,N/A,,Clear,160,2013-03-15 08:15:00
3:55 AM,51.8,42.8,71,30.16,10.0,SSE,6.9,-,N/A,,Clear,160,2013-03-15 08:55:00
4:15 AM,51.8,44.6,76,30.16,10.0,SSE,5.8,-,N/A,,Clear,160,2013-03-15 09:15:00
4:35 AM,51.8,44.6,76,30.15,10.0,South,4.6,-,N/A,,Clear,170,2013-03-15 09:35:00
4:55 AM,51.8,44.6,76,30.14,10.0,SSE,5.8,-,N/A,,Clear,160,2013-03-15 09:55:00
5:15 AM,50.0,44.6,82,30.14,10.0,SSE,5.8,-,N/A,,Clear,150,2013-03-15 10:15:00
5:35 AM,50.0,44.6,82,30.14,10.0,SSE,4.6,-,N/A,,Clear,150,2013-03-15 10:35:00
5:55 AM,50.0,44.6,82,30.15,10.0,SSE,4.6,-,N/A,,Clear,150,2013-03-15 10:55:00
6:15 AM,50.0,46.4,87,30.15,10.0,SSE,3.5,-,N/A,,Clear,160,2013-03-15 11:15:00
6:35 AM,50.0,46.4,87,30.15,10.0,SSE,4.6,-,N/A,,Clear,160,2013-03-15 11:35:00
6:55 AM,50.0,46.4,87,30.15,10.0,SSE,5.8,-,N/A,,Clear,150,2013-03-15 11:55:00
7:15 AM,50.0,46.4,87,30.15,10.0,South,4.6,-,N/A,,Clear,170,2013-03-15 12:15:00
7:55 AM,48.2,44.6,87,30.15,10.0,Calm,Calm,-,N/A,,Clear,0,2013-03-15 12:55:00
8:15 AM,48.2,44.6,87,30.15,10.0,Calm,Calm,-,N/A,,Clear,0,2013-03-15 13:15:00
8:35 AM,50.0,46.4,87,30.16,10.0,Calm,Calm,-,N/A,,Clear,0,2013-03-15 13:35:00
8:55 AM,53.6,48.2,82,30.16,10.0,Calm,Calm,-,N/A,,Clear,0,2013-03-15 13:55:00
9:15 AM,55.4,50.0,82,30.17,10.0,South,5.8,-,N/A,,Clear,190,2013-03-15 14:15:00
9:35 AM,57.2,50.0,77,30.17,10.0,South,8.1,-,N/A,,Clear,190,2013-03-15 14:35:00
10:55 AM,66.2,48.2,52,30.15,10.0,SSW,16.1,21.9,N/A,,Clear,200,2013-03-15 15:55:00
11:15 AM,68.0,48.2,49,30.15,10.0,South,17.3,25.3,N/A,,Clear,180,2013-03-15 16:15:00
11:35 AM,68.0,48.2,49,30.14,10.0,SSW,17.3,23.0,N/A,,Clear,210,2013-03-15 16:35:00
11:55 AM,69.8,48.2,46,30.13,10.0,SSW,12.7,26.5,N/A,,Clear,200,2013-03-15 16:55:00
12:15 PM,71.6,48.2,43,30.12,10.0,South,17.3,24.2,N/A,,Clear,190,2013-03-15 17:15:00
12:35 PM,73.4,48.2,41,30.11,10.0,SSW,15.0,24.2,N/A,,Clear,200,2013-03-15 17:35:00
12:55 PM,73.4,48.2,41,30.10,10.0,SSW,15.0,-,N/A,,Clear,210,2013-03-15 17:55:00
1:15 PM,75.2,46.4,36,30.08,10.0,SW,16.1,23.0,N/A,,Clear,220,2013-03-15 18:15:00
1:35 PM,75.2,46.4,36,30.07,10.0,SSW,15.0,23.0,N/A,,Clear,210,2013-03-15 18:35:00
1:55 PM,77.0,46.4,34,30.05,10.0,South,18.4,21.9,N/A,,Clear,180,2013-03-15 18:55:00
2:15 PM,77.0,44.6,32,30.04,10.0,South,18.4,23.0,N/A,,Clear,190,2013-03-15 19:15:00
2:35 PM,78.8,44.6,30,30.03,10.0,SSW,15.0,-,N/A,,Clear,200,2013-03-15 19:35:00
2:55 PM,78.8,42.8,28,30.01,10.0,South,15.0,24.2,N/A,,Clear,180,2013-03-15 19:55:00
3:15 PM,80.6,42.8,26,30.00,10.0,SSW,17.3,24.2,N/A,,Clear,200,2013-03-15 20:15:00
3:35 PM,80.6,42.8,26,29.99,10.0,SSW,17.3,25.3,N/A,,Clear,200,2013-03-15 20:35:00
3:55 PM,80.6,42.8,26,29.98,10.0,South,10.4,23.0,N/A,,Clear,180,2013-03-15 20:55:00
4:15 PM,80.6,42.8,26,29.97,10.0,South,16.1,21.9,N/A,,Clear,180,2013-03-15 21:15:00
4:35 PM,80.6,41.0,24,29.97,10.0,South,12.7,-,N/A,,Clear,180,2013-03-15 21:35:00
4:55 PM,82.4,39.2,21,29.96,10.0,South,12.7,21.9,N/A,,Clear,170,2013-03-15 21:55:00
5:15 PM,82.4,39.2,21,29.95,10.0,South,16.1,20.7,N/A,,Clear,190,2013-03-15 22:15:00
5:35 PM,80.6,41.0,24,29.95,10.0,South,16.1,19.6,N/A,,Clear,180,2013-03-15 22:35:00
5:55 PM,80.6,41.0,24,29.94,10.0,South,16.1,19.6,N/A,,Clear,190,2013-03-15 22:55:00
6:15 PM,80.6,41.0,24,29.94,10.0,South,19.6,25.3,N/A,,Clear,170,2013-03-15 23:15:00
6:35 PM,80.6,41.0,24,29.93,10.0,South,12.7,19.6,N/A,,Clear,170,2013-03-15 23:35:00
6:55 PM,78.8,42.8,28,29.93,10.0,South,16.1,19.6,N/A,,Clear,180,2013-03-15 23:55:00
7:15 PM,77.0,42.8,29,29.93,10.0,South,13.8,17.3,N/A,,Clear,170,2013-03-16 00:15:00
7:35 PM,77.0,41.0,28,29.92,10.0,South,11.5,19.6,N/A,,Clear,170,2013-03-16 00:35:00
7:55 PM,75.2,42.8,31,29.93,10.0,South,11.5,-,N/A,,Clear,170,2013-03-16 00:55:00
8:15 PM,73.4,41.0,31,29.93,10.0,SSE,9.2,-,N/A,,Clear,160,2013-03-16 01:15:00
8:35 PM,71.6,42.8,35,29.93,10.0,SSE,9.2,-,N/A,,Clear,160,2013-03-16 01:35:00
8:55 PM,71.6,44.6,38,29.94,10.0,SSE,10.4,-,N/A,,Clear,160,2013-03-16 01:55:00
9:15 PM,69.8,44.6,40,29.94,10.0,SSE,10.4,-,N/A,,Clear,160,2013-03-16 02:15:00
9:35 PM,69.8,46.4,43,29.94,10.0,SSE,12.7,16.1,N/A,,Clear,160,2013-03-16 02:35:00
9:55 PM,69.8,44.6,40,29.94,10.0,South,13.8,19.6,N/A,,Clear,170,2013-03-16 02:55:00
10:15 PM,69.8,44.6,40,29.94,10.0,South,11.5,18.4,N/A,,Clear,170,2013-03-16 03:15:00
10:35 PM,68.0,44.6,43,29.94,10.0,South,12.7,18.4,N/A,,Clear,170,2013-03-16 03:35:00
10:55 PM,68.0,44.6,43,29.94,10.0,South,10.4,18.4,N/A,,Clear,170,2013-03-16 03:55:00
11:15 PM,68.0,44.6,43,29.94,10.0,South,10.4,-,N/A,,Clear,170,2013-03-16 04:15:00
11:35 PM,66.2,44.6,46,29.93,10.0,SSE,10.4,-,N/A,,Partly Cloudy,160,2013-03-16 04:35:00
11:55 PM,64.4,44.6,49,29.93,10.0,South,9.2,-,N/A,,Clear,170,2013-03-16 04:55:00